# Total inorganic carbon (TCO2) in a unit kg  of seawater measured onboard R/V Mirai (NODC Code: unknown) of the Japan Marine Science and Technology Center (JAMSTEC).,,,,,,,,,,,,,,,,,
# Cruise = MR02-K2,,,,,,,,,,,,,,,,,
# Measured on board by Meteorological Research Institute with an automated coulometric system manufactured by Nippon ANS Co. ,,,,,,,,,,,,,,,,,
"# Batches of Certified Reference Material for TCO2 analysis provided by Dr A. G. Dickson have been used for quality control. Significant offset, if any, has been corrected for.",,,,,,,,,,,,,,,,,
"# Total alkalinity (TA) has been calculated from TCO2, SST, salinity and pCO2 that have been concurrently measured using carbonic acid dissociation constants given by Roy et al., 1993.",,,,,,,,,,,,,,,,,
# Date and Time = UTC,,,,,,,,,,,,,,,,,
"# Quality flag (F); good=2, questionable=3, bad =4, not reported = 5, no data =9",,,,,,,,,,,,,,,,,
#,,,,,,,,,,,,,,,,,
Ship,Cruise,No.,Date,,,Time,,Latitude,Longitude,TCO2,F,TA_calcd,F,SST,F,SSS,F
,,,year,month,day,hour,min,deg,deg,umol/kg,,umol/kg,,degC,,,
Mirai,MR02-K2,1,2002,2,22,10,40,39.91,142.31,2081.7,2,-999.9,9,2.3,2,32.871,2
Mirai,MR02-K2,2,2002,2,22,11,13,39.78,142.39,2084.6,3,2203,3,1.92,2,32.993,2
Mirai,MR02-K2,3,2002,2,22,12,10,39.54,142.5,2093.3,3,2218.9,3,2.68,2,33.396,2
Mirai,MR02-K2,4,2002,2,22,12,43,39.4,142.56,2093.4,3,2204.2,3,1.73,2,32.83,2
Mirai,MR02-K2,5,2002,2,22,13,40,39.17,142.68,2095.2,3,2211.5,3,2.62,2,32.896,2
Mirai,MR02-K2,6,2002,2,22,14,13,39.04,142.75,2084.2,3,2231.9,3,5.01,2,33.614,2
Mirai,MR02-K2,7,2002,2,22,15,9,38.81,142.87,2074.6,3,2239.4,3,6.15,2,33.602,2
Mirai,MR02-K2,8,2002,2,22,15,42,38.68,142.94,2080.5,3,2248.6,3,6.67,2,33.745,2
Mirai,MR02-K2,9,2002,2,22,16,39,38.44,143.05,2088,2,2247.7,2,6.14,2,33.639,2
Mirai,MR02-K2,10,2002,2,22,17,12,38.31,143.13,2085,3,2256.2,3,6.77,2,33.62,2
Mirai,MR02-K2,11,2002,2,22,18,10,38.08,143.26,2032,3,2286.3,3,14.54,2,34.701,2
Mirai,MR02-K2,12,2002,2,22,18,42,37.95,143.32,2027.2,3,2288.8,3,14.82,2,34.72,2
Mirai,MR02-K2,13,2002,2,22,19,39,37.73,143.41,2019.6,3,2283.8,3,15.08,2,34.726,2
Mirai,MR02-K2,14,2002,2,22,20,11,37.61,143.46,2020.7,2,2289.4,2,15.29,2,34.742,2
Mirai,MR02-K2,15,2002,2,22,21,9,37.39,143.57,2019.6,3,2287.2,3,15.14,2,34.743,2
Mirai,MR02-K2,16,2002,2,23,0,10,36.66,143.92,2055.6,3,2281.8,3,12.33,2,34.476,2
Mirai,MR02-K2,17,2002,2,23,0,43,36.53,143.99,2052.9,3,2284.2,3,12.23,2,34.409,2
Mirai,MR02-K2,18,2002,2,23,1,40,36.29,144.11,2052.1,3,2285.3,3,13.36,2,34.421,2
Mirai,MR02-K2,19,2002,2,23,2,13,36.15,144.17,2057.7,3,2287.9,3,13.87,2,34.62,2
Mirai,MR02-K2,20,2002,2,23,3,10,35.91,144.31,2016.8,2,2289.2,3,16.56,2,34.666,2
Mirai,MR02-K2,21,2002,2,23,3,43,35.76,144.38,2011,2,2296.2,2,17.22,2,34.759,2
Mirai,MR02-K2,22,2002,2,23,4,39,35.51,144.51,1987.9,3,2297.8,3,18.74,2,34.797,2
Mirai,MR02-K2,23,2002,2,23,5,12,35.36,144.58,1985,2,2299.1,2,18.76,2,34.822,2
Mirai,MR02-K2,24,2002,2,23,6,9,35.11,144.67,1981.2,3,2298.3,3,19.03,2,34.8,2
Mirai,MR02-K2,25,2002,2,23,6,42,34.98,144.72,1988.8,2,2296.9,2,18.6,2,34.807,2
Mirai,MR02-K2,26,2002,2,23,7,40,34.74,144.82,1985.6,3,2298.2,3,18.94,2,34.795,2
Mirai,MR02-K2,27,2002,2,23,8,12,34.61,144.87,1985.2,2,2300,2,19.12,2,34.799,2
Mirai,MR02-K2,28,2002,2,23,9,9,34.38,144.98,1988.5,3,2296.8,3,18.47,2,34.796,2
Mirai,MR02-K2,29,2002,2,23,9,41,34.25,145.04,1991.2,2,2300.6,2,18.45,2,34.797,2
Mirai,MR02-K2,30,2002,2,23,10,39,34.03,145.15,1990.1,2,2297,2,18.37,2,34.8,2
Mirai,MR02-K2,31,2002,2,23,11,11,33.9,145.22,1989.7,3,2291.9,3,18.1,2,34.781,2
Mirai,MR02-K2,32,2002,2,23,12,9,33.67,145.33,1991.8,3,2295.3,3,18.14,2,34.771,2
Mirai,MR02-K2,33,2002,2,23,12,41,33.54,145.39,1992.3,2,2295.2,2,18.11,2,34.766,2
Mirai,MR02-K2,34,2002,2,23,13,38,33.32,145.49,1991,3,2294.6,3,18.16,2,34.774,2
Mirai,MR02-K2,35,2002,2,23,14,10,33.19,145.55,1994.7,2,2298.9,2,18.25,2,34.791,2
Mirai,MR02-K2,36,2002,2,23,15,8,32.96,145.65,1993.4,2,2296.5,2,18.13,2,34.777,2
Mirai,MR02-K2,37,2002,2,23,15,41,32.82,145.71,1991.1,3,2294.4,3,18.22,2,34.786,2
Mirai,MR02-K2,38,2002,2,23,16,38,32.59,145.82,1990.7,3,2292.6,3,18.1,2,34.77,2
Mirai,MR02-K2,39,2002,2,23,17,11,32.46,145.89,1995.9,2,2298.1,2,18.09,2,34.771,2
Mirai,MR02-K2,40,2002,2,23,18,7,32.23,146,1996.9,2,2299.6,2,18.08,2,34.774,2
Mirai,MR02-K2,41,2002,2,23,18,40,32.09,146.06,1992.9,3,2294.6,3,18.08,2,34.772,2
Mirai,MR02-K2,42,2002,2,23,19,37,31.86,146.16,1995.1,3,2296.2,3,18.02,2,34.771,2
Mirai,MR02-K2,43,2002,2,23,20,10,31.72,146.22,1995.6,2,2298.9,2,18.07,2,34.762,2
Mirai,MR02-K2,44,2002,2,23,21,8,31.49,146.33,1987.5,2,2307.9,2,19.22,2,34.872,2
Mirai,MR02-K2,45,2002,2,24,0,10,30.76,146.66,1982.7,3,2294.4,3,18.84,2,34.793,2
Mirai,MR02-K2,46,2002,2,24,0,43,30.63,146.72,1980.1,3,2305.2,3,19.74,2,34.887,2
Mirai,MR02-K2,47,2002,2,24,1,40,30.41,146.82,1975.8,3,2302.5,3,20.05,2,34.902,2
Mirai,MR02-K2,48,2002,2,24,2,13,30.28,146.87,1977.4,3,2305.6,3,20.03,2,34.922,2
Mirai,MR02-K2,49,2002,2,24,3,10,30.05,146.95,1976.2,3,2297,3,19.36,2,34.83,2
Mirai,MR02-K2,50,2002,2,24,3,43,29.92,147.02,1975.6,2,2304.7,2,20.18,2,34.894,2
Mirai,MR02-K2,51,2002,2,24,4,39,29.9,147.02,1977.5,2,2306,2,20.23,2,34.916,2
Mirai,MR02-K2,52,2002,2,24,5,12,29.9,147.01,1976.2,3,2304.4,3,20.24,2,34.916,2
Mirai,MR02-K2,53,2002,2,24,6,10,29.84,147.04,1974,3,2302.8,3,20.22,2,34.918,2
Mirai,MR02-K2,54,2002,2,24,6,42,29.71,147.1,1975.5,2,2303.5,2,20.16,2,34.913,2
Mirai,MR02-K2,55,2002,2,24,7,40,29.48,147.2,1975.4,2,2306.8,2,20.56,2,34.944,2
Mirai,MR02-K2,56,2002,2,24,8,12,29.34,147.26,1971,2,2305.7,2,20.81,2,34.962,2
Mirai,MR02-K2,57,2002,2,24,9,9,29.1,147.36,1978.5,2,2308.7,2,20.28,2,34.922,2
Mirai,MR02-K2,58,2002,2,24,9,41,28.96,147.42,1974.9,2,2303.6,2,20.26,2,34.918,2
Mirai,MR02-K2,59,2002,2,24,10,39,28.7,147.53,1978.3,2,2303.3,2,19.77,2,34.892,2
Mirai,MR02-K2,60,2002,2,24,11,11,28.56,147.6,1982.2,2,2297.3,3,18.94,2,34.827,2
Mirai,MR02-K2,61,2002,2,24,12,9,28.32,147.72,1976.6,3,2301,3,19.65,2,34.874,2
Mirai,MR02-K2,62,2002,2,24,12,41,28.18,147.78,1978.5,2,2301.4,2,19.59,2,34.857,2
Mirai,MR02-K2,63,2002,2,24,13,38,27.95,147.87,1978.9,3,2305.9,3,19.97,2,34.878,2
Mirai,MR02-K2,64,2002,2,24,14,11,27.82,147.93,1977.4,2,2301.4,2,19.76,2,34.875,2
Mirai,MR02-K2,65,2002,2,24,15,8,27.58,148.05,1975.2,2,2310.7,3,21.14,2,34.986,2
Mirai,MR02-K2,66,2002,2,24,15,41,27.43,148.11,1976,3,2314.6,3,21.35,2,34.991,2
Mirai,MR02-K2,67,2002,2,24,16,38,27.18,148.22,1978.4,2,2314.7,3,20.85,2,35.016,2
Mirai,MR02-K2,68,2002,2,24,17,11,27.04,148.28,1978.1,3,2306.4,3,20.41,2,34.941,2
Mirai,MR02-K2,69,2002,2,24,18,7,26.8,148.39,1978.3,2,2312.2,2,20.79,2,34.98,2
Mirai,MR02-K2,70,2002,2,24,18,40,26.66,148.45,1971.4,2,2311.8,2,21.49,2,34.953,2
Mirai,MR02-K2,71,2002,2,24,19,37,26.43,148.56,1963.5,3,2314.5,3,22.81,2,35.04,2
Mirai,MR02-K2,72,2002,2,24,20,10,26.3,148.61,1964.5,2,2316.6,2,22.87,2,35.044,2
Mirai,MR02-K2,73,2002,2,24,21,8,26.07,148.7,1964.7,2,2315.2,2,22.68,2,35.004,2
Mirai,MR02-K2,74,2002,2,24,21,40,25.94,148.74,1963.1,2,2313.8,2,22.62,2,34.963,2
Mirai,MR02-K2,75,2002,2,24,22,37,25.71,148.83,1969.1,2,2309.2,2,21.63,2,34.934,2
Mirai,MR02-K2,76,2002,2,24,23,9,25.58,148.88,1968,2,2313.6,3,21.94,2,34.943,2
Mirai,MR02-K2,77,2002,2,25,0,7,25.36,148.99,1963.8,2,2317.2,3,22.99,2,35.019,2
Mirai,MR02-K2,78,2002,2,25,0,39,25.23,149.05,1962.7,3,2318.7,3,23.33,2,35.056,2
Mirai,MR02-K2,79,2002,2,25,1,37,24.99,149.16,1963.4,2,2315.6,2,23.16,2,35.052,2
Mirai,MR02-K2,80,2002,2,25,4,40,24.91,149.18,1964.5,2,2316.6,2,23.07,2,35.051,2
Mirai,MR02-K2,81,2002,2,25,5,13,24.9,149.18,1962.5,2,2313.9,2,23.14,2,35.052,2
Mirai,MR02-K2,82,2002,2,25,6,10,24.89,149.17,1964.4,2,2315.2,2,23.15,2,35.049,2
Mirai,MR02-K2,83,2002,2,25,6,43,24.89,149.17,1962,3,2313.1,3,23.2,2,35.054,2
Mirai,MR02-K2,84,2002,2,25,7,40,24.88,149.17,1965.1,2,2318.3,2,23.22,2,35.057,2
Mirai,MR02-K2,85,2002,2,25,8,13,24.88,149.17,1963.5,2,2316.4,2,23.22,2,35.058,2
Mirai,MR02-K2,86,2002,2,25,9,9,24.75,149.21,1965.2,2,2310.8,3,22.21,2,35.041,2
Mirai,MR02-K2,87,2002,2,25,9,42,24.62,149.28,1967.8,2,2310.3,3,21.97,2,34.982,2
Mirai,MR02-K2,88,2002,2,25,10,40,24.38,149.4,1959.5,2,2313.5,3,23.43,2,35.022,2
Mirai,MR02-K2,89,2002,2,25,11,12,24.25,149.47,1956.8,2,2311.8,2,23.73,2,35.026,2
Mirai,MR02-K2,90,2002,2,25,12,10,24,149.57,1952.8,2,2312.7,3,24.18,2,35.023,2
Mirai,MR02-K2,91,2002,2,25,12,42,23.87,149.62,1955.6,2,2313.9,2,24.04,2,35.019,2
Mirai,MR02-K2,92,2002,2,25,13,39,23.63,149.72,1954,2,2313.7,2,24.12,2,35.031,2
Mirai,MR02-K2,93,2002,2,25,14,11,23.49,149.78,1955.5,2,2310.3,3,23.8,2,35.021,2
Mirai,MR02-K2,94,2002,2,25,15,9,23.26,149.88,1959.9,2,2316.2,3,23.68,2,34.999,2
Mirai,MR02-K2,95,2002,2,25,15,41,23.13,149.94,1951.1,2,2314.8,2,24.57,2,35.036,2
Mirai,MR02-K2,96,2002,2,25,16,39,22.9,150.04,1953.5,2,2317.4,3,24.69,2,35.058,2
Mirai,MR02-K2,97,2002,2,25,17,12,22.77,150.09,1949.2,2,2313.8,3,25.02,2,35.044,2
Mirai,MR02-K2,98,2002,2,25,18,8,22.54,150.19,1952.5,2,2319.6,3,25.24,2,35.041,2
Mirai,MR02-K2,99,2002,2,25,18,41,22.41,150.25,1946.5,3,2313.2,3,25.42,2,35.045,2
Mirai,MR02-K2,100,2002,2,25,19,38,22.18,150.34,1950.5,2,2317,2,25.3,2,35.046,2
Mirai,MR02-K2,101,2002,2,25,20,11,22.05,150.39,1951.5,3,2318.9,3,25.28,2,35.045,2
Mirai,MR02-K2,102,2002,2,25,21,8,21.81,150.48,1951,2,2318.6,2,25.65,2,35.024,2
Mirai,MR02-K2,103,2002,2,25,21,41,21.68,150.54,1945.3,3,2314.1,3,25.96,2,35.002,2
Mirai,MR02-K2,104,2002,2,25,22,37,21.46,150.63,1946.9,2,2316.3,2,26.13,2,34.983,2
Mirai,MR02-K2,105,2002,2,25,23,10,21.32,150.68,1944.9,2,2313.5,2,26.16,2,34.983,2
Mirai,MR02-K2,106,2002,2,26,0,7,21.08,150.78,1945.5,2,2315.4,3,26.13,2,34.994,2
Mirai,MR02-K2,107,2002,2,26,0,40,20.94,150.83,1943.1,3,2312.2,3,26.19,2,34.989,2
Mirai,MR02-K2,108,2002,2,26,1,38,20.7,150.93,1945.1,3,2313.8,3,26.05,2,34.992,2
Mirai,MR02-K2,109,2002,2,26,4,40,19.98,151.24,1934.2,2,2299.3,2,26.91,2,34.806,2
Mirai,MR02-K2,110,2002,2,26,5,13,19.85,151.29,1932.2,2,2296.9,2,26.93,2,34.791,2
Mirai,MR02-K2,111,2002,2,26,6,10,19.63,151.38,1938.4,2,2306.5,3,26.73,2,34.866,2
Mirai,MR02-K2,112,2002,2,26,6,43,19.5,151.44,1939.2,2,2306,2,26.95,2,34.816,2
Mirai,MR02-K2,113,2002,2,26,7,40,19.28,151.53,1937.2,2,2303.2,2,27.19,2,34.776,2
Mirai,MR02-K2,114,2002,2,26,8,13,19.15,151.58,1936,2,2301.3,2,27.17,2,34.782,2
Mirai,MR02-K2,115,2002,2,26,9,10,18.92,151.66,1937.5,2,2303.7,3,27.14,2,34.793,2
Mirai,MR02-K2,116,2002,2,26,9,42,18.79,151.71,1936.7,2,2302.6,2,27.29,2,34.756,2
Mirai,MR02-K2,117,2002,2,26,10,40,18.57,151.8,1935.1,2,2300.6,2,27.31,2,34.784,2
Mirai,MR02-K2,118,2002,2,26,11,12,18.44,151.86,1935.1,2,2300.9,2,27.28,2,34.797,2
Mirai,MR02-K2,119,2002,2,26,12,10,18.22,151.95,1935.9,2,2302.4,3,27.34,2,34.769,2
Mirai,MR02-K2,120,2002,2,26,12,42,18.09,152,1937.3,2,2304.2,2,27.42,2,34.805,2
Mirai,MR02-K2,121,2002,2,26,13,39,17.87,152.09,1934,2,2300.7,2,27.4,2,34.772,2
Mirai,MR02-K2,122,2002,2,26,14,11,17.74,152.15,1937.7,2,2304.8,2,27.42,2,34.806,2
Mirai,MR02-K2,123,2002,2,26,15,9,17.51,152.24,1939.1,2,2305.4,3,27.46,2,34.837,2
Mirai,MR02-K2,124,2002,2,26,15,41,17.37,152.3,1938.7,2,2304.2,2,27.51,2,34.845,2
Mirai,MR02-K2,125,2002,2,26,16,39,17.14,152.39,1939.7,2,2306.9,3,27.52,2,34.84,2
Mirai,MR02-K2,126,2002,2,26,17,12,17,152.44,1939.4,2,2306.2,2,27.47,2,34.812,2
Mirai,MR02-K2,127,2002,2,26,18,8,16.76,152.54,1938.5,2,2304.6,2,27.39,2,34.807,2
Mirai,MR02-K2,128,2002,2,26,18,41,16.63,152.6,1938.6,2,2305.8,3,27.41,2,34.807,2
Mirai,MR02-K2,129,2002,2,26,19,38,16.39,152.71,1939.5,2,2305.3,2,27.51,2,34.792,2
Mirai,MR02-K2,130,2002,2,26,20,11,16.26,152.77,1940.7,2,2306.1,2,27.51,2,34.804,2
Mirai,MR02-K2,131,2002,2,26,21,8,16.02,152.85,1939.2,2,2305.2,3,27.55,2,34.814,2
Mirai,MR02-K2,132,2002,2,26,21,41,15.89,152.9,1951.5,2,2317.5,2,27.6,2,34.932,2
Mirai,MR02-K2,133,2002,2,26,22,37,15.66,152.99,1951.9,2,2318.4,2,27.62,2,34.942,2
Mirai,MR02-K2,134,2002,2,26,23,10,15.52,153.04,1950,3,2316.2,3,27.59,2,34.946,2
Mirai,MR02-K2,135,2002,2,27,0,7,15.29,153.13,1954.3,2,2321.9,2,27.64,2,34.928,2
Mirai,MR02-K2,136,2002,2,27,3,10,14.56,153.42,1922.3,2,2281,2,27.76,2,34.506,2
Mirai,MR02-K2,137,2002,2,27,3,43,14.44,153.47,1921.1,2,2279.1,2,27.77,2,34.515,2
Mirai,MR02-K2,138,2002,2,27,4,40,14.21,153.56,1924.3,2,2283.1,2,27.69,2,34.528,2
Mirai,MR02-K2,139,2002,2,27,5,13,14.08,153.61,1921.9,2,2279.6,2,27.65,2,34.485,2
Mirai,MR02-K2,140,2002,2,27,6,10,13.86,153.7,1919.5,2,2278.3,2,27.68,2,34.448,2
Mirai,MR02-K2,141,2002,2,27,6,43,13.73,153.75,1926.3,2,2284.6,2,27.65,2,34.55,2
Mirai,MR02-K2,142,2002,2,27,7,40,13.5,153.84,1927.5,2,2286.6,2,27.64,2,34.561,2
Mirai,MR02-K2,143,2002,2,27,8,12,13.38,153.89,1919.9,2,2277.8,2,27.63,2,34.455,2
Mirai,MR02-K2,144,2002,2,27,9,10,13.16,153.99,1912.8,2,2271.5,2,27.7,2,34.334,2
Mirai,MR02-K2,145,2002,2,27,9,42,13.03,154.04,1911,2,2266.7,2,27.73,2,34.282,2
Mirai,MR02-K2,146,2002,2,27,10,40,12.81,154.12,1915.9,2,2272.9,2,27.69,2,34.358,2
Mirai,MR02-K2,147,2002,2,27,11,12,12.68,154.17,1915.4,2,2272.5,2,27.69,2,34.352,2
Mirai,MR02-K2,148,2002,2,27,12,9,12.47,154.25,1917.6,2,2275.4,2,27.67,2,34.393,2
Mirai,MR02-K2,149,2002,2,27,12,41,12.35,154.3,1917.3,2,2273.9,3,27.67,2,34.371,2
Mirai,MR02-K2,150,2002,2,27,13,39,12.13,154.39,1916.5,2,2272.6,2,27.66,2,34.347,2
Mirai,MR02-K2,151,2002,2,27,14,11,12,154.44,1919.4,2,2276.3,2,27.64,2,34.385,2
Mirai,MR02-K2,152,2002,2,27,15,9,11.78,154.51,1921.1,2,2278.4,2,27.64,2,34.449,2
Mirai,MR02-K2,153,2002,2,27,15,41,11.65,154.55,1918,2,2275.1,2,27.67,2,34.384,2
Mirai,MR02-K2,154,2002,2,27,16,38,11.43,154.63,1914.5,2,2270.5,3,27.8,2,34.309,2
Mirai,MR02-K2,155,2002,2,27,17,11,11.3,154.67,1916.1,2,2268.7,2,27.79,2,34.28,2
Mirai,MR02-K2,156,2002,2,27,18,8,11.08,154.76,1917.8,2,2270.2,2,27.76,2,34.25,2
Mirai,MR02-K2,157,2002,2,27,18,41,10.97,154.8,1915.3,2,2266.5,2,27.75,2,34.245,2
Mirai,MR02-K2,158,2002,2,27,19,38,10.75,154.89,1914.5,2,2266.4,3,27.77,2,34.235,2
Mirai,MR02-K2,159,2002,2,27,20,11,10.62,154.93,1925.2,2,2280.2,2,28.13,2,34.403,2
Mirai,MR02-K2,160,2002,2,27,21,7,10.41,155.01,1918.4,2,2271.1,2,27.89,2,34.287,2
Mirai,MR02-K2,161,2002,2,27,21,40,10.28,155.06,1917.6,2,2269,2,27.79,2,34.251,2
Mirai,MR02-K2,162,2002,2,27,22,38,10.06,155.16,1916.1,2,2266.1,2,27.69,2,34.22,2
Mirai,MR02-K2,163,2002,2,27,23,10,9.98,155.19,1915,2,2264.3,2,27.63,2,34.179,2
Mirai,MR02-K2,164,2002,2,28,3,10,10,155.18,1911,2,2258.9,2,27.68,2,34.176,2
Mirai,MR02-K2,165,2002,2,28,3,43,10,155.18,1910.7,2,2258.1,2,27.68,2,34.177,2
Mirai,MR02-K2,166,2002,2,28,4,40,10.01,155.18,1911.2,2,2258.6,2,27.67,2,34.175,2
Mirai,MR02-K2,167,2002,2,28,5,13,9.96,155.2,1911.3,2,2258.7,2,27.69,2,34.173,2
Mirai,MR02-K2,168,2002,2,28,6,10,9.74,155.29,1910,2,2259.3,2,27.73,2,34.186,2
Mirai,MR02-K2,169,2002,2,28,6,43,9.61,155.34,1904.6,2,2253.8,2,27.75,2,34.088,2
Mirai,MR02-K2,170,2002,2,28,7,40,9.4,155.43,1911,2,2261.9,3,27.75,2,34.178,2
Mirai,MR02-K2,171,2002,2,28,8,12,9.28,155.47,1906.6,2,2254.7,2,27.67,2,34.108,2
Mirai,MR02-K2,172,2002,2,28,9,10,9.06,155.55,1910.5,2,2263.7,2,27.73,2,34.209,2
Mirai,MR02-K2,173,2002,2,28,9,42,8.94,155.59,1904.9,2,2255.2,2,27.7,2,34.155,2
Mirai,MR02-K2,174,2002,2,28,10,40,8.71,155.68,1907.8,2,2260.8,2,27.76,2,34.173,2
Mirai,MR02-K2,175,2002,2,28,11,12,8.59,155.73,1915.7,2,2269.7,2,28.11,2,34.326,2
Mirai,MR02-K2,176,2002,2,28,12,9,8.37,155.82,1924.1,2,2277.5,2,28.22,2,34.432,2
Mirai,MR02-K2,177,2002,2,28,12,41,8.24,155.87,1923.5,2,2276.4,2,28.18,2,34.415,2
Mirai,MR02-K2,178,2002,2,28,13,39,8.03,155.95,1923.5,2,2276.7,2,28.18,2,34.415,2
Mirai,MR02-K2,179,2002,2,28,14,12,8.01,155.95,1920.2,2,2272.5,2,28.12,2,34.357,2
Mirai,MR02-K2,180,2002,2,28,15,9,8.03,155.95,1921.5,2,2274.6,2,28.12,2,34.37,2
Mirai,MR02-K2,181,2002,2,28,15,42,8.04,155.95,1922.1,2,2275,2,28.12,2,34.371,2
Mirai,MR02-K2,182,2002,2,28,16,38,8.05,155.94,1922.8,2,2275.9,2,28.14,2,34.381,2
Mirai,MR02-K2,183,2002,2,28,17,11,8.06,155.94,-999.9,9,-999.9,9,28.14,2,34.383,2
Mirai,MR02-K2,184,2002,2,28,18,8,8.06,155.93,-999.9,9,-999.9,9,28.14,2,34.387,2
Mirai,MR02-K2,185,2002,2,28,18,41,8.07,155.93,-999.9,9,-999.9,9,28.15,2,34.389,2
Mirai,MR02-K2,186,2002,3,1,3,10,8.04,155.93,1920,2,2272,2,28.34,2,34.385,2
Mirai,MR02-K2,187,2002,3,1,3,43,8.04,155.93,1919.1,2,2270.7,2,28.28,2,34.386,2
Mirai,MR02-K2,188,2002,3,1,4,40,8.01,155.95,1923.3,2,2276.1,2,28.36,2,34.393,2
Mirai,MR02-K2,189,2002,3,1,5,13,8.01,155.98,1920.3,2,2272.5,2,28.34,2,34.38,2
Mirai,MR02-K2,190,2002,3,1,6,10,8.01,155.98,1921,2,2273.5,2,28.34,2,34.385,2
Mirai,MR02-K2,191,2002,3,1,6,43,7.99,156,1921.3,2,2273.8,2,28.33,2,34.386,2
Mirai,MR02-K2,192,2002,3,1,7,39,7.99,156.01,1920.2,2,2272.7,2,28.31,2,34.386,2
Mirai,MR02-K2,193,2002,3,1,8,12,8.02,156.03,1921.7,2,2274.2,2,28.28,2,34.382,2
Mirai,MR02-K2,194,2002,3,1,9,10,8.03,156.02,1922.9,2,2276.2,2,28.25,2,34.39,2
Mirai,MR02-K2,195,2002,3,1,9,42,8.02,156.01,1922.3,2,2275.3,2,28.26,2,34.387,2
Mirai,MR02-K2,196,2002,3,1,10,40,8.02,156,1922.6,2,2275.8,2,28.27,2,34.39,2
Mirai,MR02-K2,197,2002,3,1,11,12,8.03,156,1921.9,2,2274.7,2,28.27,2,34.39,2
Mirai,MR02-K2,198,2002,3,1,12,9,8.03,155.99,1921.3,2,2274.4,2,28.26,2,34.388,2
Mirai,MR02-K2,199,2002,3,1,12,41,8,156.02,1921.8,2,2274.3,2,28.26,2,34.389,2
Mirai,MR02-K2,200,2002,3,1,13,39,7.97,156.05,1921.8,2,2275.3,2,28.24,2,34.386,2
Mirai,MR02-K2,201,2002,3,1,14,12,7.97,156.04,1922.7,2,2276.2,2,28.23,2,34.385,2
Mirai,MR02-K2,202,2002,3,1,15,9,7.97,156.03,1922.1,2,2275,2,28.23,2,34.391,2
Mirai,MR02-K2,203,2002,3,1,15,42,7.97,156.02,1922.2,2,2275,2,28.23,2,34.393,2
Mirai,MR02-K2,204,2002,3,1,16,38,7.97,156.01,1921.8,2,2274.8,2,28.27,2,34.396,2
Mirai,MR02-K2,205,2002,3,1,17,11,7.97,156.01,1923.3,2,2276,2,28.27,2,34.397,2
Mirai,MR02-K2,206,2002,3,1,18,8,7.96,155.99,1923.8,2,2276.9,2,28.26,2,34.397,2
Mirai,MR02-K2,207,2002,3,1,18,41,7.97,155.98,1922.8,2,2275.8,2,28.27,2,34.398,2
Mirai,MR02-K2,208,2002,3,1,19,38,7.96,155.97,1924.3,2,2277.7,2,28.26,2,34.398,2
Mirai,MR02-K2,209,2002,3,1,20,11,8,156.01,1923.8,2,2276.1,2,28.23,2,34.392,2
Mirai,MR02-K2,210,2002,3,2,0,10,8,156.03,1920.7,2,2273.7,2,28.28,2,34.38,2
Mirai,MR02-K2,211,2002,3,2,0,43,8,156.02,1920,2,2272.7,2,28.27,2,34.365,2
Mirai,MR02-K2,212,2002,3,2,1,40,8,156.03,1919.5,2,2272.2,2,28.35,2,34.361,2
Mirai,MR02-K2,213,2002,3,2,2,13,7.96,156.04,1920.5,2,2273.9,2,28.45,2,34.367,2
Mirai,MR02-K2,214,2002,3,2,3,11,7.71,156.03,1918.2,2,2273,2,28.65,2,34.357,2
Mirai,MR02-K2,215,2002,3,2,3,43,7.57,156.02,1921.2,2,2276.1,2,28.81,2,34.388,2
Mirai,MR02-K2,216,2002,3,2,4,40,7.33,156.01,1918.2,2,2272.7,2,28.89,2,34.347,2
Mirai,MR02-K2,217,2002,3,2,5,12,7.19,156.02,1918.6,2,2273.6,2,28.86,2,34.342,2
Mirai,MR02-K2,218,2002,3,2,6,10,6.96,156.02,1920.1,2,2277.1,2,28.91,2,34.439,2
Mirai,MR02-K2,219,2002,3,2,6,42,6.83,156.02,1923.7,2,2282.4,2,29.01,2,34.494,2
Mirai,MR02-K2,220,2002,3,2,7,40,6.58,156.02,1916.6,2,2278.4,3,29.08,2,34.419,2
Mirai,MR02-K2,221,2002,3,2,8,12,6.44,156.02,1905.3,2,2264.7,2,28.99,2,34.259,2
Mirai,MR02-K2,222,2002,3,2,9,9,6.21,156.02,1910.2,2,2272.8,3,29.12,2,34.339,2
Mirai,MR02-K2,223,2002,3,2,9,41,6.07,156.03,1912.6,2,2275.3,2,29.17,2,34.381,2
Mirai,MR02-K2,224,2002,3,2,10,39,5.84,156.03,1905,2,2266.6,3,29.05,2,34.217,2
Mirai,MR02-K2,225,2002,3,2,11,12,5.71,156.02,1906.7,2,2268.3,2,29.13,2,34.269,2
Mirai,MR02-K2,226,2002,3,2,12,9,5.47,156.02,1906.2,2,2268.2,3,29.03,2,34.243,2
Mirai,MR02-K2,227,2002,3,2,12,42,5.33,156.02,1914,2,2277.4,2,29.06,2,34.359,2
Mirai,MR02-K2,228,2002,3,2,13,38,5.09,156.03,1913.5,2,2276.6,2,29.02,2,34.334,2
Mirai,MR02-K2,229,2002,3,2,14,11,4.97,156.03,1909.4,2,2271.1,2,29.05,2,34.339,2
Mirai,MR02-K2,230,2002,3,2,15,8,4.98,156.01,1911.7,2,2274.7,2,29.06,2,34.341,2
Mirai,MR02-K2,231,2002,3,2,15,41,4.98,156.02,1912.7,2,2275.4,2,29.06,2,34.346,2
Mirai,MR02-K2,232,2002,3,2,16,38,4.99,156.02,1910.4,2,2272.6,2,29.04,2,34.329,2
Mirai,MR02-K2,233,2002,3,2,17,11,5,156.03,1910.1,2,2271.8,2,29.04,2,34.314,2
Mirai,MR02-K2,234,2002,3,2,18,8,5.02,156.04,1911.6,2,2274.2,2,29.03,2,34.311,2
Mirai,MR02-K2,235,2002,3,2,18,40,5.02,156.04,1910.6,2,2272.4,2,29.03,2,34.315,2
Mirai,MR02-K2,236,2002,3,2,19,38,5.04,156.05,1910.8,2,2273,2,29.03,2,34.321,2
Mirai,MR02-K2,237,2002,3,2,20,10,5.04,156.05,1911.6,2,2273.3,2,29.03,2,34.324,2
Mirai,MR02-K2,238,2002,3,3,0,10,4.98,156.06,1909.3,2,2272,2,29.14,2,34.328,2
Mirai,MR02-K2,239,2002,3,3,0,43,4.98,156.05,1909.8,2,2271.8,2,29.19,2,34.349,2
Mirai,MR02-K2,240,2002,3,3,1,40,4.98,156.04,1910.4,2,2272,2,29.27,2,34.349,2
Mirai,MR02-K2,241,2002,3,3,2,13,4.98,156.06,1909,2,2270.2,2,29.28,2,34.343,2
Mirai,MR02-K2,242,2002,3,3,3,11,4.98,156.08,1910.5,2,2272.9,2,29.29,2,34.347,2
Mirai,MR02-K2,243,2002,3,3,3,43,4.98,156.04,1910.5,2,2272.3,2,29.32,2,34.351,2
Mirai,MR02-K2,244,2002,3,3,4,40,5.04,156,1909.2,2,2267.3,2,29.08,2,34.281,2
Mirai,MR02-K2,245,2002,3,3,5,12,5.04,156.01,1909.7,2,2267.3,2,29.08,2,34.272,2
Mirai,MR02-K2,246,2002,3,3,6,10,5.04,156.01,1910.2,2,2268.7,2,29.11,2,34.266,2
Mirai,MR02-K2,247,2002,3,3,6,42,5.05,156.01,1908.1,2,2265.5,2,29.05,2,34.254,2
Mirai,MR02-K2,248,2002,3,3,7,40,5.02,155.97,1909.5,2,2267.7,2,28.94,2,34.229,2
Mirai,MR02-K2,249,2002,3,3,8,12,5.07,155.97,1910.3,2,2266.8,2,28.93,2,34.231,2
Mirai,MR02-K2,250,2002,3,3,9,9,5.08,155.97,1908.9,2,2265.7,2,28.91,2,34.232,2
Mirai,MR02-K2,251,2002,3,3,9,42,5.09,155.97,1910.4,2,2267.3,2,28.89,2,34.234,2
Mirai,MR02-K2,252,2002,3,3,10,39,5.09,155.97,1909.3,2,2266.6,2,28.85,2,34.229,2
Mirai,MR02-K2,253,2002,3,3,11,12,5.09,155.97,1908.1,2,2265.1,2,28.84,2,34.233,2
Mirai,MR02-K2,254,2002,3,3,12,9,5.09,155.98,1908.7,2,2266,2,28.84,2,34.23,2
Mirai,MR02-K2,255,2002,3,3,12,42,5.08,155.98,1908.9,2,2266.2,2,28.82,2,34.226,2
Mirai,MR02-K2,256,2002,3,3,13,38,5.08,155.98,1910.4,2,2268.5,2,28.8,2,34.218,2
Mirai,MR02-K2,257,2002,3,3,14,11,5.08,155.97,1909.8,2,2267.1,2,28.82,2,34.225,2
Mirai,MR02-K2,258,2002,3,3,15,8,5.08,155.97,1908.3,2,2265.7,2,28.83,2,34.219,2
Mirai,MR02-K2,259,2002,3,3,15,41,5.08,155.97,1907.3,2,2264.1,2,28.82,2,34.181,2
Mirai,MR02-K2,260,2002,3,3,16,38,5.09,155.98,1903.8,2,2260.1,2,28.81,2,34.132,2
Mirai,MR02-K2,261,2002,3,3,17,11,5.09,155.98,1905,2,2261.5,2,28.8,2,34.111,2
Mirai,MR02-K2,262,2002,3,3,18,8,5.09,155.98,1902.5,2,2258.5,2,28.77,2,34.104,2
Mirai,MR02-K2,263,2002,3,3,18,40,5.1,155.99,1904,2,2259.9,2,28.77,2,34.132,2
Mirai,MR02-K2,264,2002,3,3,19,38,5.05,155.99,1909.7,2,2267.1,2,28.82,2,34.217,2
Mirai,MR02-K2,265,2002,3,3,20,10,5.02,155.97,1910.3,2,2267.6,2,28.79,2,34.232,2
Mirai,MR02-K2,266,2002,3,4,0,10,5,155.97,1914.7,2,2272,2,28.87,2,34.352,2
Mirai,MR02-K2,267,2002,3,4,0,43,4.99,155.97,1916.4,2,2273.9,2,28.86,2,34.357,2
Mirai,MR02-K2,268,2002,3,4,1,40,4.96,155.97,1915.2,2,2272.3,2,28.82,2,34.331,2
Mirai,MR02-K2,269,2002,3,4,2,13,4.83,155.97,1910.6,2,2267.9,2,28.89,2,34.292,2
Mirai,MR02-K2,270,2002,3,4,3,11,4.57,155.97,1911.8,2,2274.2,2,29.17,2,34.407,2
Mirai,MR02-K2,271,2002,3,4,3,43,4.43,155.97,1910.2,2,2272,2,29.19,2,34.393,2
Mirai,MR02-K2,272,2002,3,4,4,40,4.18,155.97,1920.2,2,2282.3,2,29.24,2,34.492,2
Mirai,MR02-K2,273,2002,3,4,5,12,4.04,155.98,1919.3,2,2281.2,2,29.19,2,34.479,2
Mirai,MR02-K2,274,2002,3,4,6,10,3.81,155.98,1917.9,2,2280.2,2,29.3,2,34.465,2
Mirai,MR02-K2,275,2002,3,4,6,42,3.67,155.98,1918.5,2,2282,2,29.29,2,34.461,2
Mirai,MR02-K2,276,2002,3,4,7,40,3.42,155.98,1920.9,2,2285.8,2,29.35,2,34.508,2
Mirai,MR02-K2,277,2002,3,4,8,12,3.28,155.98,1919.6,2,2284.8,2,29.42,2,34.518,2
Mirai,MR02-K2,278,2002,3,4,9,9,3.04,155.98,1918.5,2,2284.9,2,29.45,2,34.487,2
Mirai,MR02-K2,279,2002,3,4,9,42,2.92,155.98,1915.9,2,2281.5,2,29.48,2,34.455,2
Mirai,MR02-K2,280,2002,3,4,10,39,2.67,155.98,1919,2,2286.2,2,29.52,2,34.511,2
Mirai,MR02-K2,281,2002,3,4,11,12,2.52,155.99,1914.1,2,2280.6,2,29.5,2,34.443,2
Mirai,MR02-K2,282,2002,3,4,12,9,2.26,156,1910.4,2,2277.2,2,29.44,2,34.367,2
Mirai,MR02-K2,283,2002,3,4,12,42,2.12,156,1910.8,2,2277.6,2,29.44,2,34.384,2
Mirai,MR02-K2,284,2002,3,4,13,38,1.9,156.01,1913,2,2280.3,2,29.46,2,34.411,2
Mirai,MR02-K2,285,2002,3,4,14,11,1.95,156,1911.9,2,2278.5,2,29.42,2,34.403,2